{"data":{"norad_id":53777,"intl_designator":"2022-111E","name":"STARLINK-4664","alt_names":[],"object_type":"PAYLOAD","status":"ACTIVE","operator":null,"country":"US","launch_date":"2022-09-11","launch_site_code":"AFETR","launch_vehicle":null,"mission":null,"orbit_class":"UNKNOWN","rcs_meters":null,"size_class":null,"mass_kg":null,"dimensions":null,"purposes":["comms"],"wikipedia_slug":null,"has_3d_model":false,"image_url":null,"decayed_at":null,"tle_current":{"epoch":"2026-05-25T03:05:11.382144Z","epoch_age_seconds":63892,"freshness":"FRESH","line1":"1 53777U 22111E   26145.12860396  .00000802  00000+0  68484-4 0  9992","line2":"2 53777  53.2144 291.1278 0001299  87.8872 272.2269 15.08836764205231","mean_motion":15.08836764,"eccentricity":0.0001299,"inclination_deg":53.2144,"raan_deg":291.1278,"arg_perigee_deg":87.8872,"mean_anomaly_deg":272.2269,"bstar":6.8484e-5,"rev_number":20523,"period_min":95.43775936255,"perigee_km":538.85464619181,"apogee_km":540.65191408659,"semimajor_km":6917.8902801392,"source":"CELESTRAK","updated_at":"2026-05-25T13:38:17.541347Z"}}}